OpenBCM V1.08-5-g2f4a (Linux)

Packet Radio Mailbox

IZ3LSV

[San Dona' di P. JN]

 Login: GUEST





  
I0OJJ  > KEPS     23.07.25 01:47l 343 Lines 16342 Bytes #33 (0) @ AMSAT
BID : ORB25204.1
Read: GUEST
Subj: 2Line Orbital Elements 25204.AMSAT
Path: IZ3LSV<DB0ERF<DK0WUE<PI8ZTM<IR0AAB<I0OJJ
Sent: 250723/0025z @:I0OJJ.ITA.EU [Rome] obcm1.08-10-g596e
From: I0OJJ @ I0OJJ.ITA.EU (Gustavo)
To:   KEPS @ AMSAT
X-Info: This message was generated automatically


QST de W1STR

AMSAT Orbital Elements for Amateur Satellites in TLE Format
From Orbital Analysis Office
New England Sci-Tech STEM Education Center
Natick, MA July 23, 2025
To all radio amateurs


These element sets describe the orbits of various satellites 
in use by the amateur radio community. For details see:
www.amsat.org/keplerian-elements-formats/

A daily update of element sets is available at:
www.amsat.org/tle/daily-bulletin.txt
or without bulletin text:
www.amsat.org/tle/dailytle.txt


AO-07
1 07530U 74089B   25203.58861841 -.00000026  00000-0  12544-3 0  9994
2 07530 101.9943 208.3115 0012514  41.6218  70.8285 12.53690282319213
UO-11
1 14781U 84021B   25203.86551698  .00001220  00000-0  13385-3 0  9994
2 14781  97.7572 169.3872 0007562 182.4001 177.7181 14.89485176229088
AO-27
1 22825U 93061C   25203.57466019  .00000087  00000-0  50461-4 0  9993
2 22825  98.7344 265.3397 0008166 355.0610   5.0490 14.30810698659864
FO-29
1 24278U 96046B   25203.56040815 -.00000029  00000-0  91161-5 0  9994
2 24278  98.5701  91.7895 0349127 231.1425 125.8082 13.53250716428584
NOAA-15
1 25338U 98030A   25203.79350098  .00000214  00000-0  10567-3 0  9993
2 25338  98.5339 227.8816 0009327 228.1926 131.8459 14.27000220414564
GO-32
1 25397U 98043D   25203.54339053  .00000062  00000-0  47119-4 0  9998
2 25397  98.9731 183.5652 0002382  86.8423 273.3027 14.24323636404401
ISS
1 25544U 98067A   25203.85943200  .00007986  00000-0  14768-3 0  9992
2 25544  51.6350 130.2539 0002379 110.1784 323.3914 15.50013182520691
NO-44
1 26931U 01043C   25203.60709189  .00000135  00000-0  81435-4 0  9995
2 26931  67.0515  16.5898 0006341 276.7054  83.3326 14.31751320243268
SO-50
1 27607U 02058C   25203.61428221  .00000936  00000-0  13345-3 0  9992
2 27607  64.5526  67.6868 0060938 324.7145  34.9932 14.81726722215609
CO-55
1 27844U 03031E   25203.47057932  .00000289  00000-0  14471-3 0  9990
2 27844  98.6764 211.1911 0010798  66.2567 293.9744 14.24022979144748
CO-57
1 27848U 03031J   25203.57967376  .00000257  00000-0  13268-3 0  9995
2 27848  98.6789 211.2719 0010793  81.2923 278.9478 14.23354168144489
RS-22
1 27939U 03042A   25203.83834757  .00000996  00000-0  16545-3 0  9994
2 27939  98.3314  14.3443 0010443 228.7952 272.7904 14.72434014167191
CO-58
1 28895U 05043F   25203.36981194  .00001439  00000-0  24204-3 0  9999
2 28895  98.2548 348.2693 0014851 166.6905 193.4696 14.71125829 53238
CO-65
1 32785U 08021C   25203.89962931  .00004193  00000-0  30145-3 0  9998
2 32785  97.7870 175.4003 0011618  70.8199 289.4283 15.04764638935665
CO-66
1 32791U 08021J   25203.45280529  .00009418  00000-0  44635-3 0  9997
2 32791  97.7289 184.4800 0004675  47.5109 312.6519 15.19526934937000
RS-30
1 32953U 08025A   25203.78014242  .00000032  00000-0  16243-3 0  9991
2 32953  82.5015 200.3122 0018317 314.5223  45.4360 12.43166502778908
NOAA-19
1 33591U 09005A   25203.81134726  .00000173  00000-0  11636-3 0  9990
2 33591  98.9953 268.7544 0012884 239.1622 120.8283 14.13392439848216
SRMSAT
1 37841U 11058D   25203.52554447  .00000391  00000-0  68658-4 0  9996
2 37841  19.9711 254.6688 0011696 176.4390 327.1729 14.11446045711184
ZACUBE-1
1 39417U 13066B   25203.43670636  .00004166  00000-0  36118-3 0  9996
2 39417  97.7823 160.2373 0041642 268.8365  90.8085 14.96984534631327
Delfi-N3xt
1 39428U 13066N   25203.51337556  .00004713  00000-0  47818-3 0  9995
2 39428  97.8325 120.6947 0082918 218.2356 141.2963 14.88801962625462
GOMX-1
1 39430U 13066Q   25203.84534295  .00001868  00000-0  29397-3 0  9993
2 39430  97.6797  59.8474 0133521  54.3279 307.0271 14.67783840621757
LO-74
1 39440U 13066AA  25203.58848525  .00004562  00000-0  45949-3 0  9994
2 39440  97.8500 147.8598 0062838  39.4244 321.1521 14.90185579627847
AO-73
1 39444U 13066AE  25203.43334525  .00005183  00000-0  38517-3 0  9995
2 39444  97.7853 165.5283 0040308 240.1496 119.5720 15.02804865630021
DTUSAT-2
1 40030U 14033W   25203.47369902  .00006017  00000-0  38777-3 0  9999
2 40030  98.0569 177.3865 0007393 275.9342  84.1042 15.08714052602861
EO-80
1 40032U 14033Y   25203.42539171  .00004956  00000-0  31955-3 0  9994
2 40032  98.0445 176.9314 0007734 205.3735 154.7113 15.08784071602830
LILACSAT-2
1 40908U 15049K   25203.83809540  .00010891  00000-0  27698-3 0  9993
2 40908  97.5046 225.2500 0009074  17.9405 342.2159 15.39748568544887
IO-86
1 40931U 15052B   25151.18580175  .00001241  00000-0  78118-4 0  9996
2 40931   6.0006  24.0987 0012733 338.8432  21.1169 14.78805930523047
Horyu-4
1 41340U 16012D   25203.31877431  .00018333  00000-0  46502-3 0  9996
2 41340  30.9944 204.1855 0006746 153.9696 206.1290 15.38402861519373
Lapan A3
1 41603U 16040E   25203.86257569  .00003160  00000-0  11072-3 0  9999
2 41603  97.1376 206.7793 0012771 111.7760 248.4842 15.30100954504407
CAS-2T
1 41847U 16066G   25203.44947214  .00001050  00000-0  15685-3 0  9994
2 41847  98.4187 277.5339 0346533  48.9625 314.0974 14.43603101457206
CAS-4B
1 42759U 17034B   25203.83864217  .00082406  00000-0  68662-3 0  9994
2 42759  43.0057  63.0262 0022319 237.4586 122.4125 15.68795350449383
CAS-4A
1 42761U 17034D   25203.83146914  .00089336  00000-0  69181-3 0  9990
2 42761  43.0095  59.6795 0023488 241.9213 117.9279 15.70482796449418
TechnoSat
1 42829U 17042E   25203.55269472  .00003843  00000-0  29735-3 0  9998
2 42829  97.3884  10.1996 0017275 132.3781 227.8910 15.01914708437176
AO-91
1 43017U 17073E   25203.60954809  .00008012  00000-0  40479-3 0  9994
2 43017  97.5198  73.2945 0171406  20.5333 340.2673 15.05359178415684
S-Net D
1 43186U 18014G   25203.78042368  .00004200  00000-0  24708-3 0  9996
2 43186  97.5586 106.2470 0010855  79.1674 281.0777 15.12153188408905
S-Net B
1 43187U 18014H   25203.58787355  .00004240  00000-0  24948-3 0  9997
2 43187  97.5593 106.0305 0011524  75.6742 284.5767 15.12131352408872
S-Net A
1 43188U 18014J   25203.78066584  .00004200  00000-0  24697-3 0  9991
2 43188  97.5600 106.3770 0011407  75.7175 284.5321 15.12158350408909
S-Net C
1 43189U 18014K   25203.59039040  .00004318  00000-0  25391-3 0  9990
2 43189  97.5616 106.2102 0012836  69.5091 290.7516 15.12127448407425
Ten-Koh
1 43677U 18084G   25203.47031850  .00002005  00000-0  16325-3 0  9995
2 43677  98.0841  17.4230 0008989 117.5003 242.7134 15.00729710366670
PO-101
1 43678U 18084H   25203.79436145  .00001738  00000-0  15062-3 0  9996
2 43678  98.1071  21.5763 0009073 132.3729 227.8262 14.98495141366859
QO-100
1 43700U 18090A   25203.76952213  .00000137  00000-0  00000+0 0  9999
2 43700   0.0183  55.8945 0002669 108.5346  79.1709  1.00272798 24616
MinXSS-2
1 43758U 18099A   25203.14173319  .00012818  00000-0  48832-3 0  9993
2 43758  97.5004 269.3412 0011233  13.9988 346.1560 15.26795680363465
AO-95
1 43770U 18099N   25203.70611332  .00008663  00000-0  43023-3 0  9991
2 43770  97.4895 261.3258 0011787  67.8183 292.4300 15.17856266363097
RANGE-A
1 43773U 18099R   25203.56304496  .00003887  00000-0  24668-3 0  9995
2 43773  97.4459 250.7203 0012279  50.6934 309.5382 15.09402853362706
MOVE-II
1 43780U 18099Y   25194.80194206  .15913345  26116-5  37118-3 0  9995
2 43780  97.4526 273.8800 0018736 270.1080  89.8075 16.44566529363241
SNUSat 2
1 43782U 18099AA  25203.60774574  .00006021  00000-0  32436-3 0  9993
2 43782  97.4576 257.6261 0011897  13.5261 346.6288 15.15115385363012
SnugLite
1 43784U 18099AC  25203.59495799  .00007323  00000-0  36132-3 0  9995
2 43784  97.4390 257.2641 0003689  34.0102 326.1368 15.18191629363164
ITASat 1
1 43786U 18099AE  25203.59595953  .00005233  00000-0  29620-3 0  9992
2 43786  97.4546 256.9961 0015541  62.1930 298.0875 15.13366028362960
EAGLET 1
1 43790U 18099AJ  25203.58050931  .00003510  00000-0  22350-3 0  9997
2 43790  97.4739 256.7929 0012956  47.9512 312.2817 15.09342589362556
ESEO
1 43792U 18099AL  25203.61849572  .00002090  00000-0  16059-3 0  9991
2 43792  97.4428 249.5108 0012719  18.8656 341.3038 15.02730222362281
CSIM
1 43793U 18099AM  25203.74099802  .00441892  75708-4  14653-2 0  9994
2 43793  97.4735 285.3597 0003362 268.9593  91.1294 15.90316103364466
JO-97
1 43803U 18099AX  25203.66920273  .00009529  00000-0  42474-3 0  9991
2 43803  97.4644 262.3767 0006943   7.4970 352.6369 15.21614213363323
Suomi 100
1 43804U 18099AY  25203.42530853  .00007243  00000-0  34837-3 0  9992
2 43804  97.4710 261.3059 0011892   6.9341 353.2056 15.19036308363203
ISAT
1 43879U 18111D   25203.51307751  .00018011  00000-0  59797-3 0  9995
2 43879  97.5927 118.8893 0010108  57.0667 303.1545 15.31235100360260
UWE-4
1 43880U 18111E   25203.21719855  .00012011  00000-0  45620-3 0  9990
2 43880  97.5872 116.7576 0013525  66.1736 294.0918 15.26889166360139
Sparrow
1 43881U 18111F   25203.52459646  .00019125  00000-0  60940-3 0  9999
2 43881  97.6078 121.9499 0008989  89.8268 270.4004 15.32554008360361
Prox-1
1 44339U 19036A   25203.49019379  .00009559  00000-0  11828-2 0  9996
2 44339  23.9956 139.7758 0007513 200.2094 159.8107 14.80630318324387
SONATE
1 44400U 19038Q   25185.47540524  .09032085  27445-5  31847-3 0  9995
2 44400  97.6609 216.4776 0012462 246.7970 113.2018 16.43248376333575
Taurus 1
1 44530U 19059C   25203.86090728  .00005748  00000-0  10521-2 0  9997
2 44530  98.6105 345.3293 0008204 256.5667 103.4621 14.66235439310281
Duchifat 3
1 44854U 19089C   25203.83397194  .00047177  00000-0  81996-3 0  9990
2 44854  36.9422  79.5086 0007077 305.6808  54.3291 15.49790026309659
TO-108
1 44881U 19093C   25203.80028403  .00000861  00000-0  10531-3 0  9992
2 44881  97.7911 278.5450 0015255  90.1476 270.1487 14.85671260302494
